Regional Weather Roundup
Issued by NWS

Home | Current Version | Previous Version | Text Only | Print | Product List | Glossary Off
Versions: 1 2 3 4 5 6 7 8 9 10 11 12 13 14 15 16 17 18 19 20 21 22 23 24 25 26 27 28 29 30 31 32 33 34 35 36 37 38 39 40 41 42 43 44 45 46 47 48 49 50

000
ASUS45 KTFX 281719
RWRMT
MONTANA HOURLY WEATHER ROUNDUP
NATIONAL WEATHER SERVICE GREAT FALLS MT
1019 AM MST SUN DEC 28 2014

NOTE: "FAIR" INDICATES FEW OR NO CLOUDS BELOW 12000 FEET WITH NO
SIGNIFICANT WEATHER AND/OR OBSTRUCTIONS TO VISIBILITY.

* THESE STATIONS ARE NOT UNDER NWS QUALITY CONTROL. THEY DO NOT
   REPORT WEATHER SUCH AS PRECIPITATION OR FOG.

MTZ001>007-043-281800-
WEST OF THE DIVIDE
CITY           SKY/WX    TMP DP  RH WIND       PRES   REMARKS
KALISPELL      CLOUDY    28  19  69 N17       29.99R WCI  16
MISSOULA       LGT SNOW  27  27 100 NW3       29.96R VSB 2 1/2
BUTTE          CLOUDY    19  14  81 CALM      29.87R
MULLAN PASS    FOG       23  19  85 NW6       29.84R VSB M1/4 WCI  16
* ESSEX        N/A       23  18  81 N/A        N/A
* HAMILTON APT PTSUNNY   30  23  75 S7        29.94R WCI  23
* LIBBY APT    CLOUDY    28  27  96 CALM      30.04R
* LINCOLN      N/A       24  22  92 NE7G12     N/A   WCI  16
* LOOKOUT PASS N/A       24  24 100 NE4G9      N/A
* POLSON       N/A       27  26  96 N1         N/A
* RONAN APT    CLOUDY    28  28 100 N/A        N/A
* SEELEY LAKE  N/A       22  20  92 N/A        N/A
* THOMP F APT  PTSUNNY   15  11  84 NE2        N/A
* YAAK HILL    N/A       29  26  89 N/A        N/A
$$

MTZ008-052>055-281800-
SOUTHWEST MONTANA
CITY           SKY/WX    TMP DP  RH WIND       PRES   REMARKS
BOZEMAN        LGT SNOW  25  21  85 CALM      29.91R VSB 3/4
DILLON         CLOUDY    23  14  68 SW12      29.89R WCI  11
* W YELLOWSTON PTSUNNY   16  11  81 SW3        N/A
* THREE FORKS  CLOUDY    28  28 100 N/A        N/A
* BOULDER HILL N/A       21  18  88 N14        N/A   WCI   8
* MONIDA PASS  N/A        9   7  91 SE8        N/A   WCI  -3
* RAYNOLDS PAS N/A       14   0  53 S9         N/A   WCI   2
* WHITEHALL    N/A       28  14  56 SW11G18    N/A   WCI  18
* WISE RIVER   N/A       22  14  71 N/A        N/A
$$

MTZ009>010-012-014-046-048-049-054-281800-
EAST SLOPES AND CENTRAL MONTANA
CITY           SKY/WX    TMP DP  RH WIND       PRES   REMARKS
CUT BANK       SNOW      12   9  88 N30       30.08R VSB M1/4 WCI -10
GREAT FALLS    SNOW      14  12  92 N23       30.00R VSB 1/2  WCI  -5
HELENA         LGT SNOW  25  18  75 NW17      29.95R WCI  12
MALMSTROM AFB  LGT SNOW  16  14  92 N15       30.04R VSB 1 1/2 WCI   1
* CONRAD       CLOUDY    16  12  84 NW14       N/A   WCI   2
* DEARBORN     N/A       22  17  81 NE3G8      N/A
* EAST GLACIER N/A       12   6  77 NE16G22    N/A   WCI  -5
* MONARCH      N/A       18  15  88 NW16       N/A   WCI   3
* PENDROY      N/A       11   9  92 N27G34     N/A   WCI -10
* ROGERS PASS  N/A       14  11  88 S3G12      N/A
* SWEET GRASS  N/A       11  10  96 N/A        N/A
* WHITE SULPH  N/A       24  21  88 SW2        N/A
$$

MTZ011-013-016-021-035-040-045-047-050-051-281800-
NORTH CENTRAL MONTANA
CITY           SKY/WX    TMP DP  RH WIND       PRES   REMARKS
HAVRE          CLOUDY    18  14  84 NE13      30.09R WCI   5
LEWISTOWN      LGT SNOW  25  21  85 NE5       29.89R VSB 1    WCI  19
* N BAR RANCH  CLOUDY    23  19  85 NE6       29.89R WCI  16
* CHINOOK      PTSUNNY   18  12  77 NE7       30.13R WCI   9
* CHESTER      N/A       16  11  81 NE10G16    N/A   WCI   4
* DENTON       N/A       22  21  96 N12        N/A   WCI  10
* GEYSER       N/A       23  21  92 NE3        N/A
* JUDITH GAP   N/A       25  24  96 NW12G17    N/A   WCI  14
* LOMA         N/A       18  14  84 NW26G32    N/A
$$

MTZ017>020-022>027-061-062-281800-
NORTHEAST MONTANA
CITY           SKY/WX    TMP DP  RH WIND       PRES   REMARKS
GLASGOW        CLOUDY    18  12  77 NE15      30.07R WCI   4
GLENDIVE       CLOUDY    19  18  96 NE15      30.03R WCI   5
JORDAN         PTSUNNY   19  18  96 NE14      29.98R WCI   5
SIDNEY         CLOUDY    16  10  77 NE12      30.13R WCI   3
WOLF POINT     CLOUDY    16   9  74 NE24      30.11R WCI  -2
* BEAVER HILL  N/A       19  16  88 E18        N/A   WCI   4
* CIRCLE       N/A       19  17  92 NE9G15     N/A   WCI   8
* LINDSAY DVD  N/A       18  17  96 NE14       N/A   WCI   4
* NAVAJO       N/A        5   2  87 NE9        N/A   WCI  -9
* PLENTYWOOD A SUNNY      3   0  87 NE13      30.15R WCI -14
* POPLAR APT   PTCLDY    10   7  88 N/A       30.12R
* SACO         N/A       18  14  84 NE12       N/A   WCI   5
$$

MTZ028>042-056>058-281800-
SOUTHCENTRAL AND SOUTHEAST MONTANA
CITY           SKY/WX    TMP DP  RH WIND       PRES   REMARKS
BAKER          CLOUDY    23  16  74 E8        29.96S WCI  14
BILLINGS       CLOUDY    25  12  58 SW16      29.89R WCI  12
LIVINGSTON     CLOUDY    27  18  69 W17G29    29.85R WCI  14
MILES CITY     LGT SNOW  23  21  92 NE5       29.97R VSB 2 1/2 WCI  16
* BIG TIMBER A CLOUDY    27  19  72 W20G28    29.86R WCI  13
* FORSYTH APT  CLOUDY    23  21  92 E5        29.95R VSB 1/2  WCI  16
* LAUREL APT   CLOUDY    25   9  50 SW6        N/A   WCI  18
* ROUNDUP APT  CLOUDY    23  18  81 N5         N/A   WCI  16
* ALZADA       N/A       22  11  62 NE2        N/A
* HYSHAM       N/A       25  22  88 NW3        N/A
* REED POINT   N/A       19  16  88 SE5        N/A   WCI  12
* ROSCOE HILL  N/A       25   1  35 NE6        N/A   WCI  18
$$

REGIONAL REPORTS...DAKOTAS
CITY           SKY/WX    TMP DP  RH WIND       PRES   REMARKS
WILLISTON      CLOUDY    10   3  73 E10       30.16R WCI  -4
DICKINSON      HAZE      18  12  77 E13       30.03R WCI   5
BEACH          LGT SNOW  19  18  96 E13       30.02R WCI   6
CROSBY         SUNNY      0  -4  83 E8        30.24R WCI -14
WATFORD CITY   LGT SNOW   9   3  76 E10       30.12R WCI  -5
BISMARCK       CLOUDY    10   7  88 E14       30.19R WCI  -6
GRAND FORKS    SUNNY     -6 -11  78 N7        30.35R WCI -20
FARGO          SUNNY      1  -6  72 N14       30.30R WCI -18
BUFFALO SD     CLOUDY    21  14  74 E5        29.90R WCI  14
RAPID CITY     CLOUDY    19  12  74 CALM      29.96R
$$

REGIONAL REPORTS...WYOMING/IDAHO/WASHINGTON
CITY           SKY/WX    TMP DP  RH WIND       PRES   REMARKS
GILLETTE       CLOUDY    19  10  68 SE6       29.86R WCI  11
SHERIDAN       CLOUDY    18  10  71 CALM      29.87R
CODY           CLOUDY    16  10  77 NE8       29.84R WCI   5
YELLOWSTONE LA PTSUNNY   12   7  80 CALM      29.84S
SALMON         PTCLDY    21  14  74 CALM      29.99R
MULLAN PASS    FOG       23  19  85 NW6       29.84S VSB M1/4 WCI  16
SAND POINT     LGT SNOW  30  30 100 CALM      30.02R
SPOKANE        FOG       27  27 100 W7        30.03R VSB 2    WCI  19
$$

REGIONAL REPORTS...ALBERTA
CITY           SKY/WX    TMP DP  RH WIND       PRES   REMARKS
CALGARY        LGT SNOW  10   7  88 N16G23    30.21R WCI  -7
LETHBRIDGE     LGT SNOW  16  12  84 N8        30.20R VSB 1 1/2 WCI   5
MEDICINE HAT   LGT SNOW  10   9  96 N10G17    30.21R VSB 2    WCI  -4
EDMONTON       LGT SNOW   7   1  76 N5        30.35R WCI  -2
WATERTON GATE  N/A       14  12  92 NE5        N/A   WCI   6
CARDSTON       N/A       12  12 100 N10        N/A   WCI  -1
MILK RIVER     N/A       12  10  92 N23        N/A   WCI  -7
$$

REGIONAL REPORTS...SASKATCHEWAN
CITY           SKY/WX    TMP DP  RH WIND       PRES   REMARKS
SWIFT CURRENT  CLOUDY     1  -2  87 E9        30.18R WCI -14
REGINA         SUNNY    -13 -20  70 NW6       30.28R WCI -27
VAL MARIE      N/A       12  10  92 NE10       N/A   WCI  -1
ASSINIBOIA     N/A        3  -4  72 NE10       N/A   WCI -12

$$




USA.gov is the U.S. government's official web portal to all federal, state and local government web resources and services.